EW5961 Weather Reports


time (UTC)temp
C
wind
direction
speed
KPH
gust
KPH
rain 1hr
cm
rain 24hr
cm
rain mn
cm
humidity
%
barometer
mb
20260505014603 28 65 22.5 29.0 0.00 0.00 0.00 76 1011.3
20260505013050 28 19 20.9 32.2 0.00 0.00 0.00 76 1010.8
20260505011552 28 48 25.7 40.2 0.00 0.00 0.00 75 1010.5
20260505010049 29 40 20.9 29.0 0.00 0.00 0.00 74 1010.1
20260505004554 29 58 27.4 35.4 0.00 0.00 0.00 74 1009.8
20260505003047 29 12 20.9 35.4 0.00 0.00 0.00 73 1009.7
20260505001547 30 24 33.8 41.8 0.00 0.00 0.00 72 1009.7
20260505000052 30 12 20.9 32.2 0.00 0.00 0.00 71 1009.8
20260504234544 31 27 22.5 32.2 0.00 0.00 0.00 70 1009.7
20260504233044 31 5 16.1 29.0 0.00 0.00 0.00 69 1009.4
20260504231543 31 16 19.3 35.4 0.00 0.00 0.00 67 1009.4
20260504230046 32 338 20.9 33.8 0.00 0.00 0.00 67 1009.6
20260504224547 32 19 24.1 35.4 0.00 0.00 0.00 65 1009.3
20260504223042 33 355 22.5 32.2 0.00 0.00 0.00 64 1009.4
20260504221542 34 39 27.4 35.4 0.00 0.00 0.00 60 1009.4
20260504220042 35 34 16.1 29.0 0.00 0.00 0.00 58 1009.3
20260504214551 35 43 22.5 30.6 0.00 0.00 0.00 58 1009.2
20260504213040 35 43 14.5 32.2 0.00 0.00 0.00 59 1009.4
20260504211538 35 28 19.3 37.0 0.00 0.00 0.00 58 1009.3
20260504210053 35 53 16.1 33.8 0.00 0.00 0.00 59 1009.4
20260504204552 35 5 20.9 29.0 0.00 0.00 0.00 58 1009.6
20260504203036 35 102 27.4 33.8 0.00 0.00 0.00 58 1009.7
20260504201532 34 355 14.5 30.6 0.00 0.00 0.00 60 1010.0
20260504200031 35 43 16.1 25.7 0.00 0.00 0.00 59 1010.2
20260504194530 35 29 20.9 37.0 0.00 0.00 0.00 61 1010.7
20260504193029 35 42 19.3 30.6 0.00 0.00 0.00 59 1010.4
20260504191525 35 55 20.9 30.6 0.00 0.00 0.00 59 1010.9
20260504184519 34 36 19.3 29.0 0.00 0.00 0.00 62 1011.3
20260504183018 35 355 4.8 19.3 0.00 0.00 0.00 61 1011.3
20260504181515 33 86 9.7 27.4 0.00 0.00 0.00 60 1011.6
20260504180013 34 18 4.8 16.1 0.00 0.00 0.00 60 1011.9
20260504174511 33 145 3.2 14.5 0.00 0.00 0.00 61 1012.2
20260504173009 33 346 6.4 12.9 0.00 0.00 0.00 61 1012.6
20260504171505 33 93 4.8 17.7 0.00 0.00 0.00 62 1012.7
20260504081549 26 38 17.7 27.4 0.00 0.00 0.00 86 1012.6
20260504050023 26 47 20.9 30.6 0.00 0.00 0.00 82 1014.7
20260504044524 26 43 17.7 27.4 0.00 0.00 0.00 82 1014.7
20260504043019 26 28 14.5 25.7 0.00 0.00 0.00 82 1014.9
20260504041534 26 20 16.1 25.7 0.00 0.00 0.00 82 1014.8
20260504040021 26 340 16.1 25.7 0.00 0.00 0.00 83 1014.8
20260504034515 26 28 12.9 24.1 0.00 0.00 0.00 82 1014.8
20260504033014 26 9 14.5 24.1 0.00 0.00 0.00 82 1014.7
20260504031512 27 9 12.9 24.1 0.00 0.00 0.00 82 1014.5
20260504030011 27 5 14.5 20.9 0.00 0.00 0.00 82 1014.4
20260504024511 27 13 11.3 24.1 0.00 0.00 0.00 81 1014.7
20260504023010 27 14 12.9 25.7 0.00 0.00 0.00 81 1014.3
20260504021509 27 34 11.3 29.0 0.00 0.00 0.00 81 1014.3
20260504020010 27 342 16.1 24.1 0.00 0.00 0.00 80 1014.1